#timestamp,LO_Frequency,Hit,StdDev 
1576782015.4,286047005.6,N
1576782035.2,286047005.6,N
1576782055.1,286047005.9,N
1576782056.0,286047005.9,Y
1576782075.8,286047002.4,P
1576782095.6,286047002.5,P
1576782115.5,286047000.5,N
1576782135.3,286046998.2,N
1576782155.1,286046998.4,N
1576782175.9,286046999.2,N
1576782195.7,286047000.6,N
1576782215.6,286047002.8,N
1576782235.4,286047000.7,N
1576782255.2,286046999.8,N
1576782275.1,286047000.1,N
1576782276.0,286047000.1,N
1576782295.8,286047000.5,N
1576782315.6,286047000.5,N
1576782335.5,286047002.8,N
1576782355.3,286047002.8,N
1576782375.2,286047002.4,N
1576782395.9,286047004.4,Y
1576782415.7,286047002.1,P
1576782435.6,286047001.5,N
1576782455.4,286047001.4,N
1576782475.3,286047004.4,Y
1576782495.1,286047002.3,P
1576782496.0,286047002.3,P
1576782515.8,286047002.0,P
1576782535.7,286047002.6,Y
1576782555.5,286046996.5,P
1576782575.3,286046998.5,N
1576782595.2,286046998.3,N
1576782615.0,286046998.5,N
1576782615.9,286046998.5,N
1576782635.8,286046998.4,N
1576782655.6,286046998.1,N
1576782675.4,286047002.8,N
1576782695.3,286047002.3,N
1576782715.1,286047002.3,N
1576782735.9,286047003.2,N
1576782755.7,286047004.7,N
1576782775.5,286047005.5,N
1576782795.4,286047007.2,N
1576782815.2,286047005.5,N
1576782835.0,286047005.2,N
1576782835.9,286047005.2,N
1576782855.8,286047004.8,N
1576782875.6,286047006.8,N
1576782895.5,286047003.4,N
1576782915.3,286047003.0,N
1576782935.1,286047003.1,N
1576782955.9,286047004.2,N
1576782975.7,286047004.0,N
1576782995.5,286047001.5,N
1576783015.4,286047002.2,N
1576783035.2,286047000.2,N
1576783055.1,286047002.7,N
1576783056.0,286047002.7,N
1576783075.8,286047002.3,N
1576783095.6,286047000.5,N
1576783115.5,286047000.3,N
1576783135.3,286047000.9,N
1576783155.2,286046999.3,N
1576783175.9,286046998.4,N
1576783195.7,286046998.1,N
1576783215.6,286046999.1,N
1576783235.4,286047000.1,N
1576783255.2,286047002.3,N
1576783275.1,286046999.8,N
1576783276.0,286046999.8,N
1576783295.8,286047002.5,N
1576783315.7,286047001.9,N
1576783335.5,286047002.5,N
1576783355.3,286047002.3,N
1576783375.2,286047001.8,N
1576783395.0,286047001.4,N
1576783395.9,286047001.4,N
1576783415.7,286047004.3,N
1576783465.6,286047002.5,E
1576783475.5,286047000.6,N
1576783495.4,286046996.9,P
1576783515.2,286046998.1,N
1576783535.0,286047001.0,N
1576783536.0,286047001.0,N
1576783555.8,286047001.0,N
1576783575.6,286047002.8,N
1576783595.5,286046999.8,N
1576783615.3,286047000.0,N
1576783635.1,286047001.2,N
1576783655.9,286047000.6,N
1576783675.7,286047000.3,N
1576783695.6,286046996.8,N
1576783715.4,286046999.0,N
1576783735.2,286046997.3,N
1576783755.1,286046996.6,N
1576783756.0,286046996.6,N
1576783775.8,286046998.4,N
1576783795.6,286046998.1,N
1576783815.5,286046998.6,N
1576783835.3,286046998.6,N
1576783855.2,286046998.2,N
1576783875.9,286046999.1,N
1576783895.7,286046997.4,N
1576783915.6,286046996.6,N
1576783935.4,286046998.9,N
1576783955.2,286046998.7,N
1576783975.1,286046999.5,N
1576783976.0,286046999.5,N
1576783995.8,286046996.6,N
1576784015.7,286047001.2,N
1576784035.5,286047002.0,N
1576784055.3,286047002.6,N
1576784075.2,286047001.7,N
1576784095.0,286047001.8,N
1576784095.9,286047001.8,N
1576784115.8,286047000.3,N
1576784135.6,286046998.5,N
1576784155.4,286047002.7,N
1576784175.3,286047002.5,N
1576784195.1,286047001.7,N
1576784215.8,286047004.3,N
1576784235.7,286047002.5,N
1576784255.5,286047000.1,N
1576784275.4,286047001.6,N
1576784295.2,286047002.5,N
1576784315.0,286047004.3,N
1576784315.9,286047004.3,N
1576784335.8,286047001.4,N
1576784355.6,286047002.1,N
1576784375.4,286046999.8,N
1576784395.3,286047000.1,N
1576784415.1,286047000.8,N
1576784435.9,286047000.8,N
1576784455.7,286046999.6,N
1576784475.5,286047000.7,N
1576784495.4,286047000.5,N
1576784515.2,286046998.8,N
1576784535.1,286047000.8,N
1576784536.0,286047000.8,N
1576784555.8,286046998.9,N
1576784575.6,286046999.2,N
1576784595.5,286046999.2,N
1576784615.3,286046997.1,N
1576784635.1,286046997.8,N
1576784655.9,286046995.2,N
1576784675.7,286046995.5,N
1576784695.6,286046999.4,N
1576784715.4,286046996.6,N
1576784735.2,286047000.3,N
1576784755.1,286047001.1,N
1576784756.0,286047001.1,N
1576784775.8,286046998.2,N
1576784795.7,286046999.5,N
1576784815.5,286046998.9,N
1576784835.3,286046996.9,N
1576784855.2,286046999.3,N
1576784875.0,286046996.6,N
1576784875.9,286046996.6,N
1576784895.7,286046997.2,N
1576784915.6,286046995.3,N
1576784935.4,286046996.6,N
1576784955.3,286046996.8,N
1576784975.1,286046996.7,N
1576784976.0,286046996.7,N
1576784995.8,286046997.7,N
1576785015.7,286046997.7,N
1576785035.5,286046995.4,N
1576785055.4,286046997.4,N
1576785075.2,286046998.0,N
1576785095.0,286046997.6,N
1576785095.9,286046997.6,N
1576785115.8,286046997.2,N
1576785135.6,286047001.0,N
1576785155.4,286046999.9,N
1576785175.3,286047002.6,N
1576785195.1,286047002.4,N
1576785215.9,286047000.0,N
1576785235.7,286047000.1,N
1576785255.5,286047002.7,N
1576785275.4,286047002.2,N
1576785295.2,286047002.2,N
1576785315.0,286047000.9,N
1576785316.0,286047000.9,N
1576785335.8,286047000.8,N
1576785355.6,286046998.2,N
1576785375.5,286046998.8,N
1576785395.3,286046996.9,N
1576785415.1,286046996.5,N
1576785435.9,286046995.4,N
1576785455.7,286046997.6,N
1576785475.6,286046995.6,N
1576785495.4,286046995.4,N
1576785515.2,286046995.0,N
1576785535.1,286046995.2,N
1576785536.0,286046995.2,N
1576785555.8,286046995.1,N
1576785575.6,286046997.1,N
1576785595.5,286046997.2,N
